(°C)
-3°
-3°
-3°
-3°
-2°
-1°
(°C)
-10°
-11°
-11°
-11°
-10°
-10°
-9°
ΝΑ
ΝΑ
ΝΑ
ΝΑ
ΝΑ
ΝΑ
ΝΑ
(χλμ / ω)
24-41
24-40
25-43
26-46
27-44
28-51
29-47
(χιλιοστά)
0
0
0
0
0
0
0
(%)
0
0
0
7
7
7
7

Ανύψωση ήλιου

/ -30.6°
sun-icon
UV 0
09:11
17:33
Φθίνων αμφίκυρτος (φάση σελήνης) (307°)
03:29
15:44

METAR για 51.15°Β 51.54°Α (UARR)

Χρόνος Συνθήκες Θερμοκρασία/
Σημείο δρόσου
Άνεμος Ορατότητα Καιρός Νέφη Πίεση Αλλαγή Ανεπεξέργαστο
VFR -3°C / -5°C 140º 16kt >10km - Clouds and Visibility OK 1013 No Significant change UARR 300030Z 14008MPS CAVOK M03/M05 Q1013 NOSIG RMK QFE756/1009
VFR -3°C / -5°C 150º 14kt >10km - Clouds and Visibility OK 1014 No Significant change UARR 300000Z 15007MPS CAVOK M03/M05 Q1014 NOSIG RMK QFE757/1009
VFR -3°C / -5°C 140º 12kt >10km - Clouds and Visibility OK 1015 No Significant change UARR 292300Z 14006MPS CAVOK M03/M05 Q1015 NOSIG RMK QFE758/1011
VFR -4°C / -5°C 140º 12kt >10km - Clouds and Visibility OK 1016 No Significant change UARR 292200Z 14006MPS CAVOK M04/M05 Q1016 NOSIG RMK QFE758/1011
VFR -3°C / -5°C 140º 10kt >10km - Clouds and Visibility OK 1016 No Significant change UARR 292130Z 14005MPS CAVOK M03/M05 Q1016 NOSIG RMK QFE759/1012
VFR -3°C / -5°C 140º 10kt >10km - Clouds and Visibility OK 1017 No Significant change UARR 292100Z 14005MPS CAVOK M03/M05 Q1017 NOSIG RMK QFE759/1012
VFR -3°C / -5°C 150º 8kt >10km - Clouds and Visibility OK 1017 No Significant change UARR 292030Z 15004MPS CAVOK M03/M05 Q1017 NOSIG RMK QFE759/1013
VFR -3°C / -5°C 140º 10kt >10km - Clouds and Visibility OK 1018 No Significant change UARR 292000Z 14005MPS CAVOK M03/M05 Q1018 NOSIG RMK QFE760/1013
VFR -2°C / -5°C 160º 10kt >10km - Clouds and Visibility OK 1018 No Significant change UARR 291930Z 16005MPS CAVOK M02/M05 Q1018 NOSIG RMK QFE760/1013
VFR -2°C / -5°C 150º 12kt >10km - Clouds and Visibility OK 1018 No Significant change UARR 291900Z 15006MPS CAVOK M02/M05 Q1018 NOSIG RMK QFE760/1013
VFR -2°C / -5°C 150º 12kt >10km - Clouds and Visibility OK 1018 No Significant change UARR 291830Z 15006MPS CAVOK M02/M05 Q1018 NOSIG RMK QFE760/1013
VFR -2°C / -5°C 150º 12kt >10km - Clouds and Visibility OK 1019 No Significant change UARR 291800Z 15006MPS CAVOK M02/M05 Q1019 NOSIG RMK QFE760/1014
VFR -1°C / -5°C 150º 14kt >10km - Clouds and Visibility OK 1019 No Significant change UARR 291730Z 15007MPS CAVOK M01/M05 Q1019 NOSIG RMK QFE760/1014
VFR -1°C / -5°C 150º 16kt >10km - Clouds and Visibility OK 1019 No Significant change UARR 291700Z 15008MPS CAVOK M01/M05 Q1019 NOSIG RMK QFE761/1014
VFR -1°C / -4°C 150º 14kt >10km - Clouds and Visibility OK 1019 No Significant change UARR 291630Z 15007MPS CAVOK M01/M04 Q1019 NOSIG RMK QFE761/1014
VFR -1°C / -4°C 150º 14kt >10km - Clouds and Visibility OK 1020 No Significant change UARR 291600Z 15007MPS CAVOK M01/M04 Q1020 NOSIG RMK QFE761/1015
VFR -1°C / -4°C 160º 12kt >10km - Clouds and Visibility OK 1020 No Significant change UARR 291530Z 16006MPS CAVOK M01/M04 Q1020 NOSIG RMK QFE761/1015
VFR -1°C / -4°C 150º 10kt >10km - Clouds and Visibility OK 1020 No Significant change UARR 291500Z 15005MPS CAVOK M01/M04 Q1020 NOSIG RMK QFE762/1016
VFR -1°C / -3°C 150º 10kt >10km - Clouds and Visibility OK 1020 No Significant change UARR 291430Z 15005MPS CAVOK M01/M03 Q1020 NOSIG RMK QFE762/1016
VFR -1°C / -3°C 130º 8kt >10km - Clouds and Visibility OK 1020 No Significant change UARR 291400Z 13004MPS CAVOK M01/M03 Q1020 NOSIG RMK QFE762/1016
VFR -1°C / -3°C 110º 6kt >10km - Clouds and Visibility OK 1020 No Significant change UARR 291330Z 11003MPS CAVOK M01/M03 Q1020 NOSIG RMK QFE762/1016
VFR 0°C / -2°C 120º 6kt >10km - Clouds and Visibility OK 1020 No Significant change UARR 291300Z 12003MPS CAVOK M00/M02 Q1020 NOSIG RMK QFE762/1016
VFR 0°C / -2°C 120º 4kt >10km - Clouds and Visibility OK 1020 No Significant change UARR 291230Z 12002MPS CAVOK M00/M02 Q1020 NOSIG RMK QFE762/1016
VFR 1°C / -1°C 140º 6kt >10km - Clouds and Visibility OK 1021 No Significant change UARR 291200Z 14003MPS CAVOK 01/M01 Q1021 NOSIG RMK QFE762/1016

VFR

-3°C / -5°C

[Περισσότερο]
Άνεμος 140º 16kt
Ορατότητα >10km
Καιρός -
Νέφη Clouds and Visibility OK
Πίεση 1013
Αλλαγή No Significant change
Ανεπεξέργαστο UARR 300030Z 14008MPS CAVOK M03/M05 Q1013 NOSIG RMK QFE756/1009

VFR

-3°C / -5°C

[Περισσότερο]
Άνεμος 150º 14kt
Ορατότητα >10km
Καιρός -
Νέφη Clouds and Visibility OK
Πίεση 1014
Αλλαγή No Significant change
Ανεπεξέργαστο UARR 300000Z 15007MPS CAVOK M03/M05 Q1014 NOSIG RMK QFE757/1009

VFR

-3°C / -5°C

[Περισσότερο]
Άνεμος 140º 12kt
Ορατότητα >10km
Καιρός -
Νέφη Clouds and Visibility OK
Πίεση 1015
Αλλαγή No Significant change
Ανεπεξέργαστο UARR 292300Z 14006MPS CAVOK M03/M05 Q1015 NOSIG RMK QFE758/1011

VFR

-4°C / -5°C

[Περισσότερο]
Άνεμος 140º 12kt
Ορατότητα >10km
Καιρός -
Νέφη Clouds and Visibility OK
Πίεση 1016
Αλλαγή No Significant change
Ανεπεξέργαστο UARR 292200Z 14006MPS CAVOK M04/M05 Q1016 NOSIG RMK QFE758/1011

VFR

-3°C / -5°C

[Περισσότερο]
Άνεμος 140º 10kt
Ορατότητα >10km
Καιρός -
Νέφη Clouds and Visibility OK
Πίεση 1016
Αλλαγή No Significant change
Ανεπεξέργαστο UARR 292130Z 14005MPS CAVOK M03/M05 Q1016 NOSIG RMK QFE759/1012

VFR

-3°C / -5°C

[Περισσότερο]
Άνεμος 140º 10kt
Ορατότητα >10km
Καιρός -
Νέφη Clouds and Visibility OK
Πίεση 1017
Αλλαγή No Significant change
Ανεπεξέργαστο UARR 292100Z 14005MPS CAVOK M03/M05 Q1017 NOSIG RMK QFE759/1012

VFR

-3°C / -5°C

[Περισσότερο]
Άνεμος 150º 8kt
Ορατότητα >10km
Καιρός -
Νέφη Clouds and Visibility OK
Πίεση 1017
Αλλαγή No Significant change
Ανεπεξέργαστο UARR 292030Z 15004MPS CAVOK M03/M05 Q1017 NOSIG RMK QFE759/1013

VFR

-3°C / -5°C

[Περισσότερο]
Άνεμος 140º 10kt
Ορατότητα >10km
Καιρός -
Νέφη Clouds and Visibility OK
Πίεση 1018
Αλλαγή No Significant change
Ανεπεξέργαστο UARR 292000Z 14005MPS CAVOK M03/M05 Q1018 NOSIG RMK QFE760/1013

VFR

-2°C / -5°C

[Περισσότερο]
Άνεμος 160º 10kt
Ορατότητα >10km
Καιρός -
Νέφη Clouds and Visibility OK
Πίεση 1018
Αλλαγή No Significant change
Ανεπεξέργαστο UARR 291930Z 16005MPS CAVOK M02/M05 Q1018 NOSIG RMK QFE760/1013

VFR

-2°C / -5°C

[Περισσότερο]
Άνεμος 150º 12kt
Ορατότητα >10km
Καιρός -
Νέφη Clouds and Visibility OK
Πίεση 1018
Αλλαγή No Significant change
Ανεπεξέργαστο UARR 291900Z 15006MPS CAVOK M02/M05 Q1018 NOSIG RMK QFE760/1013

VFR

-2°C / -5°C

[Περισσότερο]
Άνεμος 150º 12kt
Ορατότητα >10km
Καιρός -
Νέφη Clouds and Visibility OK
Πίεση 1018
Αλλαγή No Significant change
Ανεπεξέργαστο UARR 291830Z 15006MPS CAVOK M02/M05 Q1018 NOSIG RMK QFE760/1013

VFR

-2°C / -5°C

[Περισσότερο]
Άνεμος 150º 12kt
Ορατότητα >10km
Καιρός -
Νέφη Clouds and Visibility OK
Πίεση 1019
Αλλαγή No Significant change
Ανεπεξέργαστο UARR 291800Z 15006MPS CAVOK M02/M05 Q1019 NOSIG RMK QFE760/1014

VFR

-1°C / -5°C

[Περισσότερο]
Άνεμος 150º 14kt
Ορατότητα >10km
Καιρός -
Νέφη Clouds and Visibility OK
Πίεση 1019
Αλλαγή No Significant change
Ανεπεξέργαστο UARR 291730Z 15007MPS CAVOK M01/M05 Q1019 NOSIG RMK QFE760/1014

VFR

-1°C / -5°C

[Περισσότερο]
Άνεμος 150º 16kt
Ορατότητα >10km
Καιρός -
Νέφη Clouds and Visibility OK
Πίεση 1019
Αλλαγή No Significant change
Ανεπεξέργαστο UARR 291700Z 15008MPS CAVOK M01/M05 Q1019 NOSIG RMK QFE761/1014

VFR

-1°C / -4°C

[Περισσότερο]
Άνεμος 150º 14kt
Ορατότητα >10km
Καιρός -
Νέφη Clouds and Visibility OK
Πίεση 1019
Αλλαγή No Significant change
Ανεπεξέργαστο UARR 291630Z 15007MPS CAVOK M01/M04 Q1019 NOSIG RMK QFE761/1014

VFR

-1°C / -4°C

[Περισσότερο]
Άνεμος 150º 14kt
Ορατότητα >10km
Καιρός -
Νέφη Clouds and Visibility OK
Πίεση 1020
Αλλαγή No Significant change
Ανεπεξέργαστο UARR 291600Z 15007MPS CAVOK M01/M04 Q1020 NOSIG RMK QFE761/1015

VFR

-1°C / -4°C

[Περισσότερο]
Άνεμος 160º 12kt
Ορατότητα >10km
Καιρός -
Νέφη Clouds and Visibility OK
Πίεση 1020
Αλλαγή No Significant change
Ανεπεξέργαστο UARR 291530Z 16006MPS CAVOK M01/M04 Q1020 NOSIG RMK QFE761/1015

VFR

-1°C / -4°C

[Περισσότερο]
Άνεμος 150º 10kt
Ορατότητα >10km
Καιρός -
Νέφη Clouds and Visibility OK
Πίεση 1020
Αλλαγή No Significant change
Ανεπεξέργαστο UARR 291500Z 15005MPS CAVOK M01/M04 Q1020 NOSIG RMK QFE762/1016

VFR

-1°C / -3°C

[Περισσότερο]
Άνεμος 150º 10kt
Ορατότητα >10km
Καιρός -
Νέφη Clouds and Visibility OK
Πίεση 1020
Αλλαγή No Significant change
Ανεπεξέργαστο UARR 291430Z 15005MPS CAVOK M01/M03 Q1020 NOSIG RMK QFE762/1016

VFR

-1°C / -3°C

[Περισσότερο]
Άνεμος 130º 8kt
Ορατότητα >10km
Καιρός -
Νέφη Clouds and Visibility OK
Πίεση 1020
Αλλαγή No Significant change
Ανεπεξέργαστο UARR 291400Z 13004MPS CAVOK M01/M03 Q1020 NOSIG RMK QFE762/1016

VFR

-1°C / -3°C

[Περισσότερο]
Άνεμος 110º 6kt
Ορατότητα >10km
Καιρός -
Νέφη Clouds and Visibility OK
Πίεση 1020
Αλλαγή No Significant change
Ανεπεξέργαστο UARR 291330Z 11003MPS CAVOK M01/M03 Q1020 NOSIG RMK QFE762/1016

VFR

0°C / -2°C

[Περισσότερο]
Άνεμος 120º 6kt
Ορατότητα >10km
Καιρός -
Νέφη Clouds and Visibility OK
Πίεση 1020
Αλλαγή No Significant change
Ανεπεξέργαστο UARR 291300Z 12003MPS CAVOK M00/M02 Q1020 NOSIG RMK QFE762/1016

VFR

0°C / -2°C

[Περισσότερο]
Άνεμος 120º 4kt
Ορατότητα >10km
Καιρός -
Νέφη Clouds and Visibility OK
Πίεση 1020
Αλλαγή No Significant change
Ανεπεξέργαστο UARR 291230Z 12002MPS CAVOK M00/M02 Q1020 NOSIG RMK QFE762/1016

VFR

1°C / -1°C

[Περισσότερο]
Άνεμος 140º 6kt
Ορατότητα >10km
Καιρός -
Νέφη Clouds and Visibility OK
Πίεση 1021
Αλλαγή No Significant change
Ανεπεξέργαστο UARR 291200Z 14003MPS CAVOK 01/M01 Q1021 NOSIG RMK QFE762/1016

TAF για 51.15°Β 51.54°Α (UARR)

From till


From till Wind 150º 14kt. Gust 27kt. Visibility 10km or more. Broken Clouds 1100ft. Broken Clouds 3000ft.
Temporarly from till Visibility 3100m. Light freezing Rain Mist . Broken Clouds 700ft.

Ανεπεξέργαστο: TAF UARR 292305Z 3000/3009 15007G14MPS 9999 BKN011 BKN030CB TEMPO 3002/3007 3100 -FZRA BR BKN007

Τρέχουσες εικόνες δορυφόρου και βροχής για 51.15°Β 51.54°Α

Η ένδειξη τοποθεσίας τοποθετείται στο 51.15°Β 51.54°Α. [Περισσότερο]

Οι δορυφορικές εικόνες σε πραγματικό χρόνο συνδυάζουν ορατό φως κατά τη διάρκεια της ημέρας με υπέρυθρη ακτινοβολία κατά τη διάρκεια της νύχτας. Κατά τη διάρκεια της νύχτας, η εικόνα δεν είναι σκοτεινή μιας και η υπέρυθρη ακτινοβολία μπορεί να εντοπίσει τις διαφορές στη θερμοκρασία. Δυστυχώς, είναι δύσκολο να ξεχωρίσουν οι χαμηλές νεφώσεις και η ομίχλη από τις θερμοκρασίες εδάφους και έτσι μπορεί να είναι σχετικά αόρατα κατά τη διάρκεια της νύχτας. Οι εικόνες από τον δορυφόρο Meteosat για την Ευρώπη ενημερώνονται σε πραγματικό χρόνο κάθε 5 λεπτά. Οι εικόνες από τους δορυφόρους GOES-16/GOES-17 (Βόρεια & Λατινική Αμερική) και Himawari (Ασία) ενημερώνονται κάθε 10 λεπτά.

Πνευματική ιδιοκτησία 2021 EUMETSAT / meteoblue. / Πνευματική ιδιοκτησία 2021 meteoblue

Ραντάρ και πρόγνωση υετού μικρής δειάρκειας για 51.15°Β 51.54°Α

Ψιλοβρέχει
Φως
Μέτρια
Βαριά
Πολύ βαρύ
Χαλάζι

Ο δείκτης θέσης τοποθετείται στο 51.15°Β 51.54°Α. Αυτή η κινούμενη εικόνα δείχνει την ραντάρ βροχόπτωσης για την τελευταία ώρα, καθώς και 1πρόγνωση h. Το ψιλόβροχο ή το ελαφρύ χιόνι μπορεί να είναι αόρατο για το ραντάρ. Η ένταση της βροχόπτωσης είναι χρωματικά κωδικοποιημένη και κυμαίνεται από γαλάζιο έως πορτοκαλί.